START_TIME,STEP,MOV.,H8,t_acc.,H43,t_acc.,M25,t_acc.,H9,t_acc.
1979-07-19 23:00:29.320 ,1,0,0.,12.0,0.,12.0,0.,12.0,0.,12.0
1979-07-19 23:00:41.320 ,1,0,0.,12.0,0.,12.0,0.,12.0,0.,12.0
1979-07-19 23:01:17.320 ,2,0,0.,12.0,0.,12.0,0.,12.0,0.,12.0
1979-07-19 23:01:29.320 ,2,0,0.,12.0,0.,12.0,0.,12.0,0.,12.0
1979-07-19 23:01:41.320 ,3,0,0.,12.0,0.,12.0,0.,12.0,0.,12.0
1979-07-19 23:01:53.320 ,3,0,0.,12.0,0.,12.0,0.,12.0,0.,12.0
1979-07-19 23:02:05.320 ,3,0,1.,12.0,0.,12.0,0.,12.0,0.,12.0
1979-07-19 23:02:17.320 ,3,0,0.,12.0,0.,12.0,0.,12.0,0.,12.0
1979-07-19 23:02:29.320 ,4,0,0.,12.0,0.,12.0,0.,12.0,0.,12.0
1979-07-19 23:02:41.320 ,4,0,0.,12.0,0.,12.0,0.,12.0,0.,12.0
1979-07-19 23:02:53.320 ,4,0,0.,12.0,0.,12.0,0.,12.0,0.,12.0
1979-07-19 23:03:05.320 ,4,0,0.,12.0,0.,12.0,0.,12.0,0.,12.0
1979-07-19 23:03:17.320 ,5,0,0.,12.0,0.,12.0,0.,12.0,0.,12.0
1979-07-19 23:03:29.320 ,5,0,0.,12.0,0.,12.0,0.,12.0,0.,12.0
1979-07-19 23:03:41.320 ,5,0,0.,12.0,0.,12.0,0.,12.0,0.,12.0
1979-07-19 23:03:53.320 ,5,0,0.,12.0,0.,12.0,0.,12.0,0.,12.0
1979-07-19 23:04:05.320 ,6,0,0.,12.0,0.,12.0,0.,12.0,0.,12.0
1979-07-19 23:04:17.320 ,6,0,0.,12.0,0.,12.0,0.,12.0,0.,12.0
1979-07-19 23:04:29.320 ,6,0,0.,12.0,0.,12.0,0.,12.0,0.,12.0
1979-07-19 23:04:41.320 ,6,0,0.,12.0,0.,12.0,0.,12.0,0.,12.0
1979-07-19 23:04:53.320 ,7,0,0.,12.0,0.,12.0,0.,12.0,0.,12.0
1979-07-19 23:05:05.320 ,7,0,0.,12.0,0.,12.0,0.,12.0,0.,12.0
1979-07-19 23:05:17.320 ,7,0,0.,12.0,0.,12.0,0.,12.0,0.,12.0
1979-07-19 23:05:29.320 ,7,0,0.,12.0,0.,12.0,0.,12.0,0.,12.0
1979-07-19 23:05:41.320 ,7,0,0.,12.0,0.,12.0,0.,12.0,0.,12.0
1979-07-19 23:05:53.320 ,7,0,0.,12.0,0.,12.0,0.,12.0,0.,12.0
1979-07-19 23:06:05.320 ,7,0,0.,12.0,0.,12.0,0.,12.0,0.,12.0
1979-07-19 23:06:17.320 ,7,0,0.,12.0,0.,12.0,0.,12.0,0.,12.0
1979-07-19 23:06:29.320 ,6,0,0.,12.0,0.,12.0,0.,12.0,0.,12.0
1979-07-19 23:06:41.320 ,6,0,0.,12.0,0.,12.0,0.,12.0,0.,12.0
1979-07-19 23:06:53.320 ,6,0,0.,12.0,0.,12.0,0.,12.0,0.,12.0
1979-07-19 23:07:05.320 ,6,0,0.,12.0,0.,12.0,0.,12.0,0.,12.0
1979-07-19 23:07:17.320 ,5,0,0.,12.0,0.,12.0,0.,12.0,0.,12.0
1979-07-19 23:07:29.320 ,5,0,0.,12.0,0.,12.0,0.,12.0,0.,12.0
1979-07-19 23:07:41.320 ,5,0,0.,12.0,0.,12.0,0.,12.0,0.,12.0
1979-07-19 23:07:53.320 ,5,0,0.,12.0,0.,12.0,0.,12.0,0.,12.0
1979-07-19 23:08:05.320 ,4,0,1.,12.0,0.,12.0,0.,12.0,0.,12.0
1979-07-19 23:08:17.320 ,4,0,1.,12.0,0.,12.0,0.,12.0,0.,12.0
1979-07-19 23:08:29.320 ,4,0,0.,12.0,0.,12.0,0.,12.0,0.,12.0
1979-07-19 23:08:41.320 ,4,0,0.,12.0,0.,12.0,0.,12.0,0.,12.0
1979-07-19 23:08:53.320 ,3,0,0.,12.0,0.,12.0,0.,12.0,0.,12.0
1979-07-19 23:09:05.320 ,3,0,0.,12.0,0.,12.0,0.,12.0,0.,12.0
1979-07-19 23:09:17.320 ,3,0,1.,12.0,0.,12.0,0.,12.0,0.,12.0
1979-07-19 23:09:29.320 ,3,0,0.,12.0,0.,12.0,0.,12.0,0.,12.0
1979-07-19 23:09:41.320 ,2,0,1.,12.0,0.,12.0,0.,12.0,0.,12.0
1979-07-19 23:09:53.320 ,2,0,0.,12.0,0.,12.0,0.,12.0,0.,12.0
1979-07-19 23:10:05.320 ,2,0,0.,12.0,0.,12.0,0.,12.0,0.,12.0
1979-07-19 23:10:17.320 ,2,0,0.,12.0,0.,12.0,0.,12.0,0.,12.0
1979-07-19 23:10:29.320 ,1,0,0.,12.0,0.,12.0,0.,12.0,0.,12.0
1979-07-19 23:10:41.320 ,1,0,0.,12.0,0.,12.0,0.,12.0,0.,12.0
1979-07-19 23:10:53.320 ,1,0,0.,12.0,0.,12.0,0.,12.0,0.,12.0
1979-07-19 23:11:05.320 ,1,0,0.,12.0,0.,12.0,0.,12.0,0.,12.0
1979-07-19 23:11:17.320 ,0,0,0.,12.0,0.,12.0,0.,12.0,0.,12.0
1979-07-19 23:11:29.320 ,0,0,0.,12.0,0.,12.0,0.,12.0,0.,12.0
1979-07-19 23:11:41.320 ,0,0,0.,12.0,0.,12.0,0.,12.0,0.,12.0
1979-07-19 23:11:53.320 ,0,0,0.,12.0,0.,12.0,0.,12.0,0.,12.0
1979-07-19 23:12:05.320 ,0,0,0.,12.0,0.,12.0,0.,12.0,0.,12.0
1979-07-19 23:12:17.320 ,0,0,0.,12.0,0.,12.0,0.,12.0,0.,12.0
1979-07-19 23:12:29.320 ,0,0,0.,12.0,0.,12.0,0.,12.0,0.,12.0
1979-07-19 23:12:41.320 ,0,0,0.,12.0,0.,12.0,0.,12.0,0.,12.0
1979-07-19 23:12:53.320 ,1,0,0.,12.0,0.,12.0,0.,12.0,0.,12.0
1979-07-19 23:13:05.320 ,1,0,0.,12.0,0.,12.0,0.,12.0,0.,12.0
1979-07-19 23:13:17.320 ,1,0,0.,12.0,0.,12.0,0.,12.0,0.,12.0
1979-07-19 23:13:29.320 ,1,0,0.,12.0,0.,12.0,0.,12.0,0.,12.0
1979-07-19 23:13:41.320 ,2,0,0.,12.0,0.,12.0,0.,12.0,0.,12.0
1979-07-19 23:13:53.320 ,2,0,0.,12.0,0.,12.0,0.,12.0,0.,12.0
1979-07-19 23:14:05.320 ,2,0,0.,12.0,0.,12.0,0.,12.0,0.,12.0
1979-07-19 23:14:17.320 ,2,0,0.,12.0,0.,12.0,0.,12.0,0.,12.0
1979-07-19 23:14:29.320 ,3,0,0.,12.0,0.,12.0,0.,12.0,0.,12.0
1979-07-19 23:14:41.320 ,3,0,0.,12.0,0.,12.0,0.,12.0,0.,12.0
1979-07-19 23:14:53.320 ,3,0,0.,12.0,0.,12.0,0.,12.0,0.,12.0
1979-07-19 23:15:05.320 ,3,0,0.,12.0,0.,12.0,0.,12.0,0.,12.0
1979-07-19 23:15:17.320 ,4,0,0.,12.0,0.,12.0,0.,12.0,0.,12.0
1979-07-19 23:15:29.320 ,4,0,0.,12.0,0.,12.0,0.,12.0,0.,12.0
1979-07-19 23:15:41.320 ,4,0,0.,12.0,0.,12.0,0.,12.0,0.,12.0
1979-07-19 23:15:53.320 ,4,0,0.,12.0,0.,12.0,0.,12.0,0.,12.0
1979-07-19 23:16:05.320 ,5,0,0.,12.0,0.,12.0,0.,12.0,0.,12.0
1979-07-19 23:16:17.320 ,5,0,1.,12.0,0.,12.0,0.,12.0,0.,12.0
1979-07-19 23:16:29.320 ,5,0,0.,12.0,0.,12.0,0.,12.0,0.,12.0
1979-07-19 23:16:41.320 ,5,0,1.,12.0,0.,12.0,0.,12.0,0.,12.0
1979-07-19 23:16:53.320 ,6,0,0.,12.0,0.,12.0,0.,12.0,0.,12.0
1979-07-19 23:17:05.320 ,6,0,0.,12.0,0.,12.0,0.,12.0,0.,12.0
1979-07-19 23:17:17.310 ,6,0,0.,12.0,0.,12.0,0.,12.0,0.,12.0
1979-07-19 23:17:29.310 ,6,0,0.,12.0,0.,12.0,0.,12.0,0.,12.0
1979-07-19 23:17:41.310 ,7,0,0.,12.0,0.,12.0,0.,12.0,0.,12.0
1979-07-19 23:17:53.310 ,7,0,0.,12.0,0.,12.0,0.,12.0,0.,12.0
1979-07-19 23:18:05.310 ,7,0,0.,12.0,0.,12.0,0.,12.0,0.,12.0
1979-07-19 23:18:17.310 ,7,0,0.,12.0,0.,12.0,0.,12.0,0.,12.0
1979-07-19 23:18:29.310 ,7,0,0.,12.0,0.,12.0,0.,12.0,0.,12.0
1979-07-19 23:18:41.310 ,7,0,0.,12.0,0.,12.0,0.,12.0,0.,12.0
1979-07-19 23:18:53.310 ,7,0,0.,12.0,0.,12.0,0.,12.0,0.,12.0
1979-07-19 23:19:05.310 ,7,0,0.,12.0,0.,12.0,0.,12.0,0.,12.0
1979-07-19 23:19:17.310 ,6,0,0.,12.0,0.,12.0,0.,12.0,0.,12.0
1979-07-19 23:19:29.310 ,6,0,0.,12.0,0.,12.0,0.,12.0,0.,12.0
1979-07-19 23:19:41.310 ,6,0,0.,12.0,0.,12.0,0.,12.0,0.,12.0
1979-07-19 23:19:53.310 ,6,0,0.,12.0,0.,12.0,0.,12.0,0.,12.0
1979-07-19 23:20:05.310 ,5,0,0.,12.0,0.,12.0,0.,12.0,0.,12.0
1979-07-19 23:20:17.310 ,5,0,0.,12.0,0.,12.0,0.,12.0,0.,12.0
1979-07-19 23:20:29.310 ,5,0,0.,12.0,0.,12.0,0.,12.0,0.,12.0
1979-07-19 23:20:41.310 ,5,0,0.,12.0,0.,12.0,0.,12.0,0.,12.0
1979-07-19 23:20:53.310 ,4,0,0.,12.0,0.,12.0,0.,12.0,0.,12.0
1979-07-19 23:21:05.310 ,4,0,0.,12.0,0.,12.0,0.,12.0,0.,12.0
1979-07-19 23:21:17.310 ,4,0,0.,12.0,0.,12.0,0.,12.0,0.,12.0
1979-07-19 23:21:29.310 ,4,0,0.,12.0,0.,12.0,0.,12.0,0.,12.0
1979-07-19 23:21:41.310 ,3,0,0.,12.0,0.,12.0,0.,12.0,0.,12.0
1979-07-19 23:21:53.310 ,3,0,0.,12.0,0.,12.0,0.,12.0,0.,12.0
1979-07-19 23:22:05.310 ,3,0,1.,12.0,0.,12.0,0.,12.0,0.,12.0
1979-07-19 23:22:17.310 ,3,0,0.,12.0,0.,12.0,0.,12.0,0.,12.0
1979-07-19 23:22:29.310 ,2,0,1.,12.0,0.,12.0,0.,12.0,0.,12.0
1979-07-19 23:22:41.310 ,2,0,0.,12.0,0.,12.0,0.,12.0,0.,12.0
1979-07-19 23:22:53.310 ,2,0,0.,12.0,0.,12.0,0.,12.0,0.,12.0
1979-07-19 23:23:05.310 ,2,0,0.,12.0,0.,12.0,0.,12.0,0.,12.0
1979-07-19 23:23:17.310 ,1,0,0.,12.0,0.,12.0,0.,12.0,0.,12.0
1979-07-19 23:23:29.310 ,1,0,0.,12.0,0.,12.0,0.,12.0,0.,12.0
1979-07-19 23:23:41.310 ,1,0,0.,12.0,0.,12.0,0.,12.0,0.,12.0
1979-07-19 23:23:53.310 ,1,0,0.,12.0,0.,12.0,0.,12.0,0.,12.0
1979-07-19 23:24:05.310 ,0,0,0.,12.0,0.,12.0,0.,12.0,0.,12.0
1979-07-19 23:24:17.310 ,0,0,0.,12.0,0.,12.0,0.,12.0,0.,12.0
1979-07-19 23:24:29.310 ,0,0,0.,12.0,0.,12.0,0.,12.0,0.,12.0
1979-07-19 23:24:41.310 ,0,0,0.,12.0,0.,12.0,0.,12.0,0.,12.0
1979-07-19 23:24:53.310 ,0,0,0.,12.0,0.,12.0,0.,12.0,0.,12.0
1979-07-19 23:25:05.310 ,0,0,0.,12.0,0.,12.0,0.,12.0,0.,12.0
1979-07-19 23:25:17.310 ,0,0,0.,12.0,0.,12.0,0.,12.0,0.,12.0
1979-07-19 23:25:29.310 ,0,0,0.,12.0,0.,12.0,0.,12.0,0.,12.0
1979-07-19 23:25:41.310 ,1,0,0.,12.0,0.,12.0,0.,12.0,0.,12.0
1979-07-19 23:25:53.310 ,1,0,0.,12.0,0.,12.0,0.,12.0,0.,12.0
1979-07-19 23:26:05.310 ,1,0,0.,12.0,0.,12.0,0.,12.0,0.,12.0
1979-07-19 23:26:17.310 ,1,0,0.,12.0,0.,12.0,0.,12.0,0.,12.0
1979-07-19 23:26:29.310 ,2,0,0.,12.0,0.,12.0,0.,12.0,0.,12.0
1979-07-19 23:26:41.310 ,2,0,0.,12.0,0.,12.0,0.,12.0,0.,12.0
1979-07-19 23:26:53.310 ,2,0,0.,12.0,0.,12.0,0.,12.0,0.,12.0
1979-07-19 23:27:05.310 ,2,0,0.,12.0,0.,12.0,0.,12.0,0.,12.0
1979-07-19 23:27:17.310 ,3,0,0.,12.0,0.,12.0,0.,12.0,0.,12.0
1979-07-19 23:27:29.310 ,3,0,0.,12.0,0.,12.0,0.,12.0,0.,12.0
1979-07-19 23:27:41.310 ,3,0,0.,12.0,0.,12.0,0.,12.0,0.,12.0
1979-07-19 23:27:53.310 ,3,0,0.,12.0,0.,12.0,0.,12.0,0.,12.0
1979-07-19 23:28:05.310 ,4,0,1.,12.0,0.,12.0,0.,12.0,0.,12.0
1979-07-19 23:28:17.310 ,4,0,0.,12.0,0.,12.0,0.,12.0,0.,12.0
1979-07-19 23:28:29.310 ,4,0,0.,12.0,0.,12.0,0.,12.0,0.,12.0
1979-07-19 23:28:41.310 ,4,0,0.,12.0,0.,12.0,0.,12.0,0.,12.0
1979-07-19 23:28:53.310 ,5,0,0.,12.0,0.,12.0,0.,12.0,0.,12.0
1979-07-19 23:29:05.310 ,5,0,0.,12.0,0.,12.0,0.,12.0,0.,12.0
1979-07-19 23:29:17.310 ,5,0,1.,12.0,0.,12.0,0.,12.0,0.,12.0
1979-07-19 23:29:29.310 ,5,0,0.,12.0,0.,12.0,0.,12.0,0.,12.0
1979-07-19 23:29:41.310 ,6,0,0.,12.0,0.,12.0,0.,12.0,0.,12.0
1979-07-19 23:29:53.310 ,6,0,0.,12.0,0.,12.0,0.,12.0,0.,12.0
1979-07-19 23:30:05.310 ,6,0,0.,12.0,0.,12.0,0.,12.0,0.,12.0
1979-07-19 23:30:17.310 ,6,0,0.,12.0,0.,12.0,0.,12.0,0.,12.0
1979-07-19 23:30:29.310 ,7,0,0.,12.0,0.,12.0,0.,12.0,0.,12.0
1979-07-19 23:30:41.310 ,7,0,0.,12.0,0.,12.0,0.,12.0,0.,12.0
1979-07-19 23:30:53.310 ,7,0,0.,12.0,0.,12.0,0.,12.0,0.,12.0
1979-07-19 23:31:05.310 ,7,0,0.,12.0,0.,12.0,0.,12.0,0.,12.0
1979-07-19 23:31:17.310 ,3,1,0.,12.0,0.,12.0,0.,12.0,0.,12.0
1979-07-19 23:31:29.310 ,3,1,0.,12.0,0.,12.0,0.,12.0,0.,12.0
1979-07-19 23:31:41.310 ,0,1,0.,12.0,0.,12.0,0.,12.0,0.,12.0
1979-07-19 23:31:53.310 ,0,1,0.,12.0,0.,12.0,0.,12.0,0.,12.0
1979-07-19 23:32:05.310 ,4,1,0.,12.0,0.,12.0,0.,12.0,0.,12.0
1979-07-19 23:32:17.310 ,4,1,0.,12.0,0.,12.0,0.,12.0,0.,12.0
1979-07-19 23:32:29.310 ,7,1,0.,12.0,0.,12.0,0.,12.0,0.,12.0
1979-07-19 23:32:41.310 ,7,1,0.,12.0,0.,12.0,0.,12.0,0.,12.0
1979-07-19 23:32:53.310 ,3,1,0.,12.0,0.,12.0,0.,12.0,0.,12.0
1979-07-19 23:33:05.310 ,3,1,0.,12.0,0.,12.0,0.,12.0,0.,12.0
1979-07-19 23:33:17.310 ,0,1,0.,12.0,0.,12.0,0.,12.0,0.,12.0
1979-07-19 23:33:29.310 ,0,1,0.,12.0,0.,12.0,0.,12.0,0.,12.0
1979-07-19 23:33:41.310 ,4,1,0.,12.0,0.,12.0,0.,12.0,0.,12.0
1979-07-19 23:33:53.310 ,4,1,0.,12.0,0.,12.0,0.,12.0,0.,12.0
1979-07-19 23:34:05.310 ,7,1,0.,12.0,0.,12.0,0.,12.0,0.,12.0
1979-07-19 23:34:17.310 ,7,1,0.,12.0,0.,12.0,0.,12.0,0.,12.0
1979-07-19 23:34:29.310 ,3,1,0.,12.0,0.,12.0,0.,12.0,0.,12.0
1979-07-19 23:34:41.310 ,3,1,0.,12.0,0.,12.0,0.,12.0,0.,12.0
1979-07-19 23:34:53.310 ,0,1,0.,12.0,0.,12.0,0.,12.0,0.,12.0
1979-07-19 23:35:05.310 ,0,1,0.,12.0,0.,12.0,0.,12.0,0.,12.0
1979-07-19 23:35:17.310 ,4,1,0.,12.0,0.,12.0,0.,12.0,0.,12.0
1979-07-19 23:35:29.310 ,4,1,0.,12.0,0.,12.0,0.,12.0,0.,12.0
1979-07-19 23:35:41.310 ,7,1,0.,12.0,0.,12.0,0.,12.0,0.,12.0
1979-07-19 23:35:53.310 ,7,1,0.,12.0,0.,12.0,0.,12.0,0.,12.0
1979-07-19 23:36:05.310 ,3,1,0.,12.0,0.,12.0,0.,12.0,0.,12.0
1979-07-19 23:36:17.310 ,3,1,0.,12.0,0.,12.0,0.,12.0,0.,12.0
1979-07-19 23:36:29.310 ,0,1,1.,12.0,0.,12.0,0.,12.0,0.,12.0
1979-07-19 23:36:41.310 ,0,1,0.,12.0,0.,12.0,0.,12.0,0.,12.0
1979-07-19 23:36:53.310 ,4,1,0.,12.0,0.,12.0,0.,12.0,0.,12.0
1979-07-19 23:37:05.310 ,4,1,0.,12.0,0.,12.0,0.,12.0,0.,12.0
1979-07-19 23:37:17.310 ,7,1,0.,12.0,0.,12.0,0.,12.0,0.,12.0
1979-07-19 23:37:29.310 ,7,1,0.,12.0,0.,12.0,0.,12.0,0.,12.0
1979-07-19 23:37:41.310 ,3,1,0.,12.0,0.,12.0,0.,12.0,0.,12.0
1979-07-19 23:37:53.310 ,3,1,0.,12.0,0.,12.0,0.,12.0,0.,12.0
1979-07-19 23:38:05.310 ,0,1,0.,12.0,0.,12.0,0.,12.0,0.,12.0
1979-07-19 23:38:17.310 ,0,1,0.,12.0,0.,12.0,0.,12.0,0.,12.0
1979-07-19 23:38:29.310 ,4,1,0.,12.0,0.,12.0,0.,12.0,0.,12.0
1979-07-19 23:38:41.310 ,4,1,1.,12.0,0.,12.0,0.,12.0,0.,12.0
1979-07-19 23:38:53.310 ,7,1,0.,12.0,0.,12.0,0.,12.0,0.,12.0
1979-07-19 23:39:05.310 ,7,1,0.,12.0,0.,12.0,0.,12.0,0.,12.0
1979-07-19 23:39:17.310 ,3,1,0.,12.0,0.,12.0,0.,12.0,0.,12.0
1979-07-19 23:39:29.310 ,3,1,0.,12.0,0.,12.0,0.,12.0,0.,12.0
1979-07-19 23:39:41.310 ,0,1,0.,12.0,0.,12.0,0.,12.0,0.,12.0
1979-07-19 23:39:53.310 ,0,1,0.,12.0,0.,12.0,0.,12.0,0.,12.0
1979-07-19 23:40:05.310 ,4,1,0.,12.0,0.,12.0,0.,12.0,0.,12.0
1979-07-19 23:40:17.310 ,4,1,0.,12.0,0.,12.0,0.,12.0,0.,12.0
1979-07-19 23:40:29.310 ,7,1,0.,12.0,0.,12.0,0.,12.0,0.,12.0
1979-07-19 23:40:41.310 ,7,1,0.,12.0,0.,12.0,0.,12.0,0.,12.0
1979-07-19 23:40:53.310 ,3,1,0.,12.0,0.,12.0,0.,12.0,0.,12.0
1979-07-19 23:41:05.310 ,3,1,0.,12.0,0.,12.0,0.,12.0,0.,12.0
1979-07-19 23:41:17.310 ,0,1,0.,12.0,0.,12.0,0.,12.0,0.,12.0
1979-07-19 23:41:29.310 ,0,1,0.,12.0,0.,12.0,0.,12.0,0.,12.0
1979-07-19 23:41:41.310 ,0,0,0.,12.0,0.,12.0,0.,12.0,0.,12.0
1979-07-19 23:41:53.310 ,0,0,0.,12.0,0.,12.0,0.,12.0,0.,12.0
1979-07-19 23:42:05.310 ,0,0,0.,12.0,0.,12.0,0.,12.0,0.,12.0
1979-07-19 23:42:17.310 ,0,0,0.,12.0,0.,12.0,0.,12.0,0.,12.0
1979-07-19 23:42:29.310 ,5,0,0.,12.0,0.,12.0,0.,12.0,0.,12.0
1979-07-19 23:42:41.310 ,5,0,0.,12.0,0.,12.0,0.,12.0,0.,12.0
1979-07-19 23:42:53.310 ,5,0,0.,12.0,0.,12.0,0.,12.0,0.,12.0
1979-07-19 23:43:05.310 ,5,0,0.,12.0,0.,12.0,0.,12.0,0.,12.0
1979-07-19 23:43:17.310 ,4,0,0.,12.0,0.,12.0,0.,12.0,0.,12.0
1979-07-19 23:43:29.310 ,4,0,0.,12.0,0.,12.0,0.,12.0,0.,12.0
1979-07-19 23:43:41.310 ,4,0,0.,12.0,0.,12.0,0.,12.0,0.,12.0
1979-07-19 23:43:53.310 ,4,0,0.,12.0,0.,12.0,0.,12.0,0.,12.0
1979-07-19 23:44:05.310 ,3,0,0.,12.0,0.,12.0,0.,12.0,0.,12.0
1979-07-19 23:44:17.310 ,3,0,0.,12.0,0.,12.0,0.,12.0,0.,12.0
1979-07-19 23:44:29.310 ,3,0,0.,12.0,0.,12.0,0.,12.0,0.,12.0
1979-07-19 23:44:41.310 ,3,0,0.,12.0,0.,12.0,0.,12.0,0.,12.0
1979-07-19 23:44:53.310 ,2,0,0.,12.0,0.,12.0,0.,12.0,0.,12.0
1979-07-19 23:45:05.310 ,2,0,0.,12.0,0.,12.0,0.,12.0,0.,12.0
1979-07-19 23:45:17.310 ,2,0,1.,12.0,0.,12.0,0.,12.0,0.,12.0
1979-07-19 23:45:29.310 ,2,0,0.,12.0,0.,12.0,0.,12.0,0.,12.0
1979-07-19 23:45:41.310 ,1,0,0.,12.0,0.,12.0,0.,12.0,0.,12.0
1979-07-19 23:45:53.310 ,1,0,0.,12.0,0.,12.0,0.,12.0,0.,12.0
1979-07-19 23:46:05.310 ,1,0,0.,12.0,0.,12.0,0.,12.0,0.,12.0
1979-07-19 23:46:17.310 ,1,0,0.,12.0,0.,12.0,0.,12.0,0.,12.0
1979-07-19 23:46:29.310 ,0,0,0.,12.0,0.,12.0,0.,12.0,0.,12.0
1979-07-19 23:46:41.310 ,0,0,1.,12.0,0.,12.0,0.,12.0,0.,12.0
1979-07-19 23:46:53.310 ,0,0,0.,12.0,0.,12.0,0.,12.0,0.,12.0
1979-07-19 23:47:05.310 ,0,0,0.,12.0,0.,12.0,0.,12.0,0.,12.0
1979-07-19 23:47:17.310 ,0,0,0.,12.0,0.,12.0,0.,12.0,0.,12.0
1979-07-19 23:47:29.310 ,0,0,0.,12.0,0.,12.0,0.,12.0,0.,12.0
1979-07-19 23:47:41.310 ,0,0,0.,12.0,0.,12.0,0.,12.0,0.,12.0
1979-07-19 23:47:53.310 ,0,0,0.,12.0,0.,12.0,0.,12.0,0.,12.0
1979-07-19 23:48:05.310 ,1,0,0.,12.0,0.,12.0,0.,12.0,0.,12.0
1979-07-19 23:48:17.310 ,1,0,0.,12.0,0.,12.0,0.,12.0,0.,12.0
1979-07-19 23:48:29.310 ,1,0,0.,12.0,0.,12.0,0.,12.0,0.,12.0
1979-07-19 23:48:41.310 ,1,0,0.,12.0,0.,12.0,0.,12.0,0.,12.0
1979-07-19 23:48:53.310 ,2,0,0.,12.0,0.,12.0,0.,12.0,0.,12.0
1979-07-19 23:49:05.310 ,2,0,0.,12.0,0.,12.0,0.,12.0,0.,12.0
1979-07-19 23:49:17.310 ,2,0,0.,12.0,0.,12.0,0.,12.0,0.,12.0
1979-07-19 23:49:29.310 ,2,0,0.,12.0,0.,12.0,0.,12.0,0.,12.0
1979-07-19 23:49:41.310 ,3,0,0.,12.0,0.,12.0,0.,12.0,0.,12.0
1979-07-19 23:49:53.310 ,3,0,0.,12.0,0.,12.0,0.,12.0,0.,12.0
1979-07-19 23:50:05.310 ,3,0,1.,12.0,0.,12.0,0.,12.0,0.,12.0
1979-07-19 23:50:17.310 ,3,0,0.,12.0,0.,12.0,0.,12.0,0.,12.0
1979-07-19 23:50:29.310 ,4,0,0.,12.0,0.,12.0,0.,12.0,0.,12.0
1979-07-19 23:50:41.310 ,4,0,0.,12.0,0.,12.0,0.,12.0,0.,12.0
1979-07-19 23:50:53.310 ,4,0,0.,12.0,0.,12.0,0.,12.0,0.,12.0
1979-07-19 23:51:05.310 ,4,0,0.,12.0,0.,12.0,0.,12.0,0.,12.0
1979-07-19 23:51:17.310 ,5,0,0.,12.0,0.,12.0,0.,12.0,0.,12.0
1979-07-19 23:51:29.310 ,5,0,0.,12.0,0.,12.0,0.,12.0,0.,12.0
1979-07-19 23:51:41.310 ,5,0,0.,12.0,0.,12.0,0.,12.0,0.,12.0
1979-07-19 23:51:53.310 ,5,0,0.,12.0,0.,12.0,0.,12.0,0.,12.0
1979-07-19 23:52:05.310 ,6,0,0.,12.0,0.,12.0,0.,12.0,0.,12.0
1979-07-19 23:52:17.310 ,6,0,0.,12.0,0.,12.0,0.,12.0,0.,12.0
1979-07-19 23:52:29.310 ,6,0,0.,12.0,0.,12.0,0.,12.0,0.,12.0
1979-07-19 23:52:41.310 ,6,0,0.,12.0,0.,12.0,0.,12.0,0.,12.0
1979-07-19 23:52:53.310 ,7,0,0.,12.0,0.,12.0,0.,12.0,0.,12.0
1979-07-19 23:53:05.310 ,7,0,0.,12.0,0.,12.0,0.,12.0,0.,12.0
1979-07-19 23:53:17.310 ,7,0,0.,12.0,0.,12.0,0.,12.0,0.,12.0
1979-07-19 23:53:29.310 ,7,0,0.,12.0,0.,12.0,0.,12.0,0.,12.0
1979-07-19 23:53:41.310 ,7,0,0.,12.0,0.,12.0,0.,12.0,0.,12.0
1979-07-19 23:53:53.310 ,7,0,0.,12.0,0.,12.0,0.,12.0,0.,12.0
1979-07-19 23:54:05.310 ,7,0,0.,12.0,0.,12.0,0.,12.0,0.,12.0
1979-07-19 23:54:17.310 ,7,0,0.,12.0,0.,12.0,0.,12.0,0.,12.0
1979-07-19 23:54:29.310 ,6,0,0.,12.0,0.,12.0,0.,12.0,0.,12.0
1979-07-19 23:54:41.310 ,6,0,0.,12.0,0.,12.0,0.,12.0,0.,12.0
1979-07-19 23:54:53.310 ,6,0,0.,12.0,0.,12.0,0.,12.0,0.,12.0
1979-07-19 23:55:05.310 ,6,0,0.,12.0,0.,12.0,0.,12.0,0.,12.0
1979-07-19 23:55:17.310 ,5,0,0.,12.0,0.,12.0,0.,12.0,0.,12.0
1979-07-19 23:55:29.310 ,5,0,0.,12.0,0.,12.0,0.,12.0,0.,12.0
1979-07-19 23:55:41.310 ,5,0,0.,12.0,0.,12.0,0.,12.0,0.,12.0
1979-07-19 23:55:53.310 ,5,0,0.,12.0,0.,12.0,0.,12.0,0.,12.0
1979-07-19 23:56:05.310 ,4,0,0.,12.0,0.,12.0,0.,12.0,0.,12.0
1979-07-19 23:56:17.310 ,4,0,1.,12.0,0.,12.0,0.,12.0,0.,12.0
1979-07-19 23:56:29.310 ,4,0,0.,12.0,0.,12.0,0.,12.0,0.,12.0
1979-07-19 23:56:41.310 ,4,0,0.,12.0,0.,12.0,0.,12.0,0.,12.0
1979-07-19 23:56:53.310 ,3,0,0.,12.0,0.,12.0,0.,12.0,0.,12.0
1979-07-19 23:57:05.310 ,3,0,0.,12.0,0.,12.0,0.,12.0,0.,12.0
1979-07-19 23:57:17.310 ,3,0,0.,12.0,0.,12.0,0.,12.0,0.,12.0
1979-07-19 23:57:29.310 ,3,0,0.,12.0,0.,12.0,0.,12.0,0.,12.0
1979-07-19 23:57:41.310 ,2,0,0.,12.0,0.,12.0,0.,12.0,0.,12.0
1979-07-19 23:57:53.310 ,2,0,0.,12.0,0.,12.0,0.,12.0,0.,12.0
1979-07-19 23:58:05.310 ,2,0,0.,12.0,0.,12.0,0.,12.0,0.,12.0
1979-07-19 23:58:17.310 ,2,0,0.,12.0,0.,12.0,0.,12.0,0.,12.0
1979-07-19 23:58:29.310 ,1,0,0.,12.0,0.,12.0,0.,12.0,0.,12.0
1979-07-19 23:58:41.310 ,1,0,0.,12.0,0.,12.0,0.,12.0,0.,12.0
1979-07-19 23:58:53.310 ,1,0,0.,12.0,0.,12.0,0.,12.0,0.,12.0
1979-07-19 23:59:05.310 ,1,0,0.,12.0,0.,12.0,0.,12.0,0.,12.0
1979-07-19 23:59:17.310 ,0,0,0.,12.0,0.,12.0,0.,12.0,0.,12.0
1979-07-19 23:59:29.310 ,0,0,0.,12.0,0.,12.0,0.,12.0,0.,12.0
1979-07-19 23:59:41.310 ,0,0,0.,12.0,0.,12.0,0.,12.0,0.,12.0
1979-07-19 23:59:53.310 ,0,0,0.,12.0,0.,12.0,0.,12.0,0.,12.0
1979-07-20 00:00:05.310 ,0,0,0.,12.0,0.,12.0,0.,12.0,0.,12.0
1979-07-20 00:00:17.310 ,0,0,0.,12.0,0.,12.0,0.,12.0,0.,12.0
